{"data":{"norad_id":68749,"epoch":"2026-05-25T04:00:03.998880Z","epoch_age_seconds":74450,"freshness":"FRESH","line1":"1 68749U 26082X   26145.16671295 -.00751047  00000+0 -11177-1 0  9990","line2":"2 68749  97.2854   8.9324 0001708 101.7755 345.3674 15.57603363  6006","mean_motion":15.57603363,"eccentricity":0.0001708,"inclination_deg":97.2854,"raan_deg":8.9324,"arg_perigee_deg":101.7755,"mean_anomaly_deg":345.3674,"bstar":-0.011177,"rev_number":600,"period_min":92.44972335104,"perigee_km":393.4387340938,"apogee_km":395.75229952154,"semimajor_km":6772.7325168077,"source":"CELESTRAK","updated_at":"2026-05-25T13:38:22.031302Z"}}